Weather in Novogeorgiyevka

Russia / Amur Oblast     51°51′02″N   127°06′29″E
temp.,
°C
wind,
m/s
gust,
m/s
humid.,
%
clouds,
%
prec.,
mm/h
press.,
hPa
HPBL,
m
7 may, fri
fri700:00+4wnw11816 0.0 100211
03:00+3wnw11905 0.0 100211
06:00+3nnw12905 0.0 100250
09:00+9nne23675 0.0 1001709
12:00+10ene445581 0.3 10001438
15:00+11ne4550100 0.3 9991708
18:00+9nne4760100 0.0 1000764
21:00+6n41166100 0.0 999351
8 may, sat
sat800:00+5nne41065100 0.0 1000454
03:00+3n4106787 0.0 1000425
06:00+2n5126998 0.0 1000642
09:00+6nne695185 0.0 10001128
12:00+9nne7940100 0.0 10001786
15:00+11nne6837100 0.0 9992280
18:00+7ene5860100 0.0 1001902
21:00+4nne4886100 0.1 1002609
9 may, sun
sun900:00+3n4996100 0.6 1002575
03:00+2n4997100 2.2 1002448
06:00+2n3897100 1.3 1003342
09:00+2nne4789100 2.4 1004651
12:00+8n4657100 0.0 10041268
15:00+10n4650100 0.0 10041592
18:00+11n3649100 0.0 10041288
21:00+6nnw2668100 0.0 1006129
10 may, mon
mon1000:00+4nnw238017 0.0 100858
03:00+2n248177 0.0 100993
06:00+2n267775 0.0 1010221
09:00+7nne235480 0.0 1010717
12:00+12nne224493 0.0 10101439
15:00+13ne2243100 0.0 10091762
18:00+12ene114897 0.0 10101159
21:00+8s116561 0.0 101110
11 may, tue
tue1100:00+6ssw228293 0.0 101224
03:00+8wnw1166100 0.0 101212
06:00+6sse118478 0.0 101349
09:00+11se235964 0.0 10121020
12:00+12se345474 0.4 10111459
15:00+13sse455092 0.6 10111485
18:00+12sse3552100 0.0 10101349
21:00+10se2668100 0.0 1011197